sat.trackr.live / text

‹ back to catalog

HULIANWANG DIGUI-01

NORAD 62323 · 2024-240A

PAYLOAD ACTIVE UNKNOWN

§ Identity

Operator
Country
PRC
Launch date
2024-12-16
Launch site
WSC
Launch vehicle
Mass (kg)
RCS (m²)

External: N2YO · Heavens-Above · Gunter

§ Orbital elements

Epoch: 2026-09-22T21:48:35.851392Z

Period
108.73 min
Inclination
86.4980°
Eccentricity
0.0001669
Mean motion
13.24414314 rev/d
Perigee alt
1,166.6 km
Apogee alt
1,169.2 km
Semi-major
7,546.0 km
B*
7.9979e-5
RAAN
310.2851°
Arg perigee
89.7386°
Mean anomaly
270.3939°
Rev number
8,557

§ Raw data

HULIANWANG DIGUI-011 62323U 24240A   26265.90874828  .00000049  00000+0  79979-4 0  99922 62323  86.4980 310.2851 0001669  89.7386 270.3939 13.24414314 85571

JSON: /api/v1/satellites/62323 · /tle

For live sub-satellite position, see the globe view (requires WebGL).

§ Visibility from observer

Set your observer location to see the next 7 days of passes ≥ 10°. The values pass through the URL so the page stays shareable.

No JS? Fill the form by hand. The geolocation button needs JavaScript.